1390953634672,2.89911
1390953694672,2.89827
1390953754672,2.84779
1390953814672,2.87507
1390953874672,2.88323
1390953934672,2.88986
1390953994672,2.87787
1390954054672,2.89364
1390954114672,2.88855
1390954174672,2.86755
1390954234672,2.85782
1390954294672,2.86228
1390954354672,2.87692
1390954414672,2.84584
1390954474672,2.85615
1390954534672,2.86533
1390954594672,2.86068
1390954654672,2.84233
1390954714672,2.87459
1390954774672,2.87117
1390954834672,2.85537
1390954894672,2.84688
1390954954672,2.86490
1390955014672,2.84075
1390955074672,2.84731
1390955134672,2.86324
1390955194672,2.87556
1390955254672,2.84992
1390955314672,2.84822
1390955374672,2.86771
1390955434672,2.81959
1390955494672,2.85307
1390955554672,2.83829
1390955614672,2.84142
1390955674672,2.85663
1390955734672,2.97594
1390955794672,2.85498
1390955854672,2.83308
1390955914672,2.83111
1390955974672,2.87433
1390956034672,2.85558
1390956094672,2.84579
1390956154672,2.82501
1390956214672,2.85611
1390956274672,2.86922
1390956334672,2.88021
1390956394672,2.89936
1390956454672,2.88067
1390956514672,2.86537
1390956574672,2.85155
1390956634672,2.89692
1390956694672,2.93473
1390956754672,2.91982
1390956814672,2.96724
1390956874672,2.96198
1390956934672,2.91818
1390956994672,2.94381
1390957054672,3.12960
1390957114672,2.93883
1390957174672,2.90928
1390957234687,2.90026
1390957294687,2.92630
1390957354687,2.92100
1390957414687,2.96305
1390957474687,2.90732
1390957534687,2.93349
1390957594687,2.88186
1390957654687,2.87548
1390957714687,2.89375
1390957774687,2.88387
1390957834687,2.90818
1390957894687,2.87798
1390957954687,2.87471
1390958014687,2.87058
1390958074687,2.89738
1390958134687,2.88151
1390958194687,2.88810
1390958254687,2.87057
1390958314687,2.87085
1390958374687,2.91484
1390958434687,2.86716
1390958494687,2.86893
1390958554687,2.88091
1390958614687,2.86546
1390958674687,2.90497
1390958734687,2.88954
1390958794687,2.87524
1390958854687,2.90770
1390958914687,2.88948
1390958974687,2.91510
1390959034687,2.91504
1390959094687,2.88761
1390959154687,2.89557
1390959214687,2.88948
1390959274687,2.88653
1390959334687,2.90824
1390959394687,2.91737
1390959454687,2.90133
1390959514687,2.90910
1390959574687,2.93220
1390959634687,2.93178
1390959694687,2.89728
1390959754687,2.87270
1390959814687,2.88211
1390959874687,2.91775
1390959934687,2.91178
1390959994687,2.89953
1390960054687,2.88054
1390960114687,2.91235
1390960174687,2.89701
1390960234687,2.88815
1390960294687,2.87876
1390960354687,2.93281
1390960414687,2.93587
1390960474687,2.89604
1390960534687,2.91064
1390960594687,2.94458
1390960654687,2.87529
1390960714687,2.91000
1390960774687,2.92007
1390960834698,2.90463
1390960894698,2.90145
1390960954698,2.90539
1390961014698,2.89496
1390961074698,2.88991
1390961134698,2.89880
1390961194698,2.90595
1390961254698,2.89530
1390961314698,2.88138
1390961374698,2.92891
1390961434698,2.89020
1390961494698,2.93045
1390961554698,2.90957
1390961614698,2.90919
1390961674698,2.92370
1390961734698,2.89450
1390961794698,2.92270
1390961854698,2.89683
1390961914698,2.88792
1390961974698,2.90726
1390962034698,2.88277
1390962094698,2.89468
1390962154698,2.91177
1390962214698,2.89560
1390962274698,2.91631
1390962334698,2.89627
1390962394698,2.90741
1390962454698,2.87027
1390962514698,2.87723
1390962574698,2.90724
1390962634698,2.86617
1390962694698,2.89024
1390962754698,2.91265
1390962814698,2.88789
1390962874698,2.88304
1390962934698,2.89401
1390962994698,2.89925
1390963054698,2.90279
1390963114698,2.88665
1390963174698,2.85344
1390963234698,2.90000
1390963294698,2.90586
1390963354698,2.90417
1390963414698,2.92920
1390963474698,2.90945
1390963534698,2.88939
1390963594698,2.90503
1390963654698,2.88577
1390963714698,2.87793
1390963774698,2.86017
1390963834698,2.90316
1390963894698,2.90644
1390963954698,2.87395
1390964014698,2.94304
1390964074698,2.88745
1390964134698,2.85887
1390964194698,2.88315
1390964254698,2.84187
1390964314698,2.90551
1390964374698,2.87654
1390964434708,2.87294
1390964494708,2.84811
1390964554708,2.86898
1390964614708,2.87833
1390964674708,2.87329
1390964734708,2.87044
1390964794708,2.90319
1390964854708,2.88644
1390964914708,2.87049
1390964974708,2.86999
1390965034708,2.87383
1390965094708,2.86238
1390965154708,2.89504
1390965214708,2.88692
1390965274708,2.91098
1390965334708,2.91122
1390965394708,2.86376
1390965454708,2.93917
1390965514708,2.87521
1390965574708,2.90561
1390965634708,2.89711
1390965694708,2.87953
1390965754708,2.91850
1390965814708,2.90637
1390965874708,2.91124
1390965934708,2.91556
1390965994708,2.87737
1390966054708,2.90948
1390966114708,2.94677
1390966174708,2.93360
1390966234708,2.89101
1390966294708,2.93003
1390966354708,2.93774
1390966414708,2.92166
1390966474708,2.90904
1390966534708,3.02728
1390966594708,2.93182
1390966654708,2.94641
1390966714708,2.93515
1390966774708,2.95705
1390966834708,2.93358
1390966894708,2.91460
1390966954708,2.94546
1390967014708,2.92980
1390967074708,2.95757
1390967134708,2.93325
1390967194708,2.94263
1390967254708,2.93207
1390967314708,2.93533
1390967374708,2.96261
1390967434708,2.93503
1390967494708,2.94917
1390967554708,2.93096
1390967614708,2.95654
1390967674708,2.94292
1390967734708,2.96913
1390967794708,2.93940
1390967854708,2.97694
1390967914708,2.94149
1390967974708,2.93872
1390968034719,2.94363
1390968094719,2.94467
1390968154719,2.94126
1390968214719,2.92976
1390968274719,2.90110
1390968334719,2.92738
1390968394719,2.94956
1390968454719,2.89111
1390968514719,2.94151
1390968574719,2.91173
1390968634719,2.90560
1390968694719,2.91164
1390968754719,2.93501
1390968814719,2.91352
1390968874719,2.93362
1390968934719,2.93836
1390968994719,2.93691
1390969054719,2.91701
1390969114719,2.92165
1390969174719,2.90698
1390969234719,2.93779
1390969294719,2.91155
1390969354719,2.90206
1390969414719,2.93908
1390969474719,2.93176
1390969534719,2.92440
1390969594719,2.94892
1390969654719,2.87986
1390969714719,2.92038
1390969774719,2.91830
1390969834719,2.88767
1390969894719,2.92592
1390969954719,2.92029
1390970014719,2.93354
1390970074719,2.95532
1390970134719,2.95185
1390970194719,2.92060
1390970254719,2.93933
1390970314719,2.98454
1390970374719,2.97485
1390970434719,2.95056
1390970494719,2.98383
1390970554719,2.94727
1390970614719,2.99287
1390970674719,2.99977
1390970734719,3.00212
1390970794719,2.98911
1390970854719,2.96512
1390970914719,2.96090
1390970974719,2.97274
1390971034719,2.93995
1390971094719,2.91049
1390971154719,2.93689
1390971214719,2.91461
1390971274719,2.90771
1390971334719,2.90551
1390971394719,2.88389
1390971454719,2.93030
1390971514719,2.86578
1390971574719,2.87400
1390971634730,2.88868
1390971694730,2.88829
1390971754730,2.87419
1390971814730,2.89124
1390971874730,2.88916
1390971934730,2.85566
1390971994730,2.86101
1390972054730,2.84806
1390972114730,2.84931
1390972174730,2.86407
1390972234730,2.84433
1390972294730,2.74324
1390972834730,2.85783
1390972894730,2.79391
1390972954730,2.86490
1390973014730,2.80851
1390973074730,2.84149
1390973134730,2.83543
1390973194730,2.83239
1390973254730,2.84333
1390973314730,2.85790
1390973374730,2.83122
1390973434730,2.83552
1390973494730,2.85770
1390973554730,2.81184
1390973614730,2.81941
1390973674730,2.84941
1390973734730,2.83540
1390973794730,2.85223
1390973854730,2.80523
1390973914730,2.81176
1390973974730,2.81240
1390974034730,2.82873
1390974094730,2.81107
1390974154730,2.82241
1390974214730,2.82705
1390974274730,2.83338
1390974334730,2.82374
1390974394730,2.81746
1390974454730,2.85876
1390974514730,2.77940
1390974574730,2.82664
1390974634730,2.79402
1390974694730,2.82045
1390974754730,2.81416
1390974814730,2.81599
1390974874730,2.80575
1390974934730,2.80302
1390974994730,2.79665
1390975054730,2.82119
1390975114730,2.81902
1390975174730,2.79983
1390975234741,2.81568
1390975294741,2.79813
1390975354741,2.82009
1390975414741,2.80212
1390975474741,2.80344
1390975534741,2.81945
1390975594741,2.79836
1390975654741,2.79147
1390975714741,2.79022
1390975774741,2.79634
1390975834741,2.80047
1390975894741,2.77620
1390975954741,2.82982
1390976014741,2.78571
1390976074741,2.80700
1390976134741,2.77862
1390976194741,2.78481
1390976254741,2.82214
1390976314741,2.77711
1390976374741,2.80377
1390976434741,2.78217
1390976494741,2.78726
1390976554741,2.80083
1390976614741,2.79745
1390976674741,2.78761
1390976734741,2.78278
1390976794741,2.78788
1390976854741,2.82013
1390976914741,2.78720
1390976974741,2.78934
1390977034741,2.78853
1390977094741,2.79814
1390977154741,2.78459
1390977214741,2.77220
1390977274741,2.78429
1390977334741,2.77803
1390977394741,2.77999
1390977454741,2.79813
1390977514741,2.77334
1390977574741,2.80277
1390977634741,2.73973
1390977694741,2.76729
1390977754741,2.80344
1390977814741,2.77517
1390977874741,2.81925
1390977934741,2.79485
1390977994741,2.79663
1390978054741,2.79081
1390978114741,2.79838
1390978174741,2.80887
1390978234741,2.81354
1390978294741,2.78705
1390978354741,2.80486
1390978414741,2.83211
1390978474741,2.80036
1390978534741,2.78904
1390978594741,2.83165
1390978654741,2.77990
1390978714741,2.80874
1390978774741,2.81660
1390978834753,2.80098
1390978894753,2.81687
1390978954752,2.83521
1390979014752,2.83917
1390979074752,2.81669
1390979134752,2.82356
1390979194752,2.84729
1390979254752,2.85310
1390979314752,2.86922
1390979374752,2.82501
1390979434752,2.81888
1390979494753,2.82399
1390979554753,2.83490
1390979614753,2.80390
1390979674752,2.79142
1390979734752,2.81536
1390979794753,2.80459
1390979854753,2.81475
1390979914753,2.89902
1390979974753,2.80402
1390980034753,2.84719
1390980094753,2.85660
1390980154753,2.86013
1390980214753,2.84627
1390980274753,2.85418
1390980334752,2.88528
1390980394752,2.84273
1390980454752,2.83915
1390980514752,2.87062
1390980574752,2.86050
1390980634752,2.87286
1390980694752,2.84797
1390980754752,2.83274
1390980814753,2.82349
1390980874753,2.98534
1390980934753,2.87427
1390980994752,2.86357
1390981054752,2.82455
1390981114752,2.85451
1390981174753,2.85502
1390981234753,2.86586
1390981294753,2.86781
1390981354753,2.84302
1390981414753,2.85835
1390981474753,2.85059
1390981534753,2.85256
1390981594753,2.79946
1390981654752,2.83286
1390981714752,2.85621
1390981774752,2.82832
1390981834752,2.83549
1390981894752,2.84119
1390981954752,2.83359
1390982014752,2.77952
1390982074752,2.82147
1390982134752,2.78283
1390982194753,2.81394
1390982254753,2.79397
1390982314753,2.81426
1390982374752,2.77984
1390982434764,2.82351
1390982494764,2.78143
1390982554764,2.80688
1390982614764,2.80715
1390982674764,2.80274
1390982734764,2.83068
1390982794764,2.80880
1390982854764,2.80139
1390982914764,2.80344
1390982974764,2.79061
1390983034764,2.79209
1390983094764,2.80774
1390983154764,2.82337
1390983214764,2.80965
1390983274764,2.78901
1390983334764,2.79286
1390983394764,2.78810
1390983454764,2.79382
1390983514764,2.79357
1390983574764,3.00766
1390983634764,2.81838
1390983694764,2.78627
1390983754764,2.79397
1390983814764,2.76664
1390983874764,2.77736
1390983934764,2.80601
1390983994764,2.78477
1390984054764,2.77771
1390984114764,2.78744
1390984174764,2.76427
1390984234764,2.77485
1390984294764,2.79456
1390984354764,2.77074
1390984414764,2.80717
1390984474764,2.92183
1390984534764,2.82222
1390984594764,2.78178
1390984654764,2.76576
1390984714764,2.78625
1390984774764,2.76341
1390984834764,2.78613
1390984894764,2.80772
1390984954764,2.79120
1390985014764,2.79310
1390985074764,2.78752
1390985134764,2.78424
1390985194764,2.79012
1390985254764,2.78347
1390985314764,2.78821
1390985374764,2.74819
1390985434764,2.77020
1390985494764,2.78443
1390985554764,2.81032
1390985614764,2.80855
1390985674764,2.77673
1390985734764,2.78510
1390985794764,2.78638
1390985854764,2.78186
1390985914764,2.81147
1390985974764,2.79133
1390986034776,2.78732
1390986094776,2.78626
1390986154776,2.82589
1390986214776,2.76986
1390986274776,2.79918
1390986334776,2.80227
1390986394776,2.78572
1390986454776,2.79419
1390986514776,2.82419
1390986574776,2.79291
1390986634776,2.79304
1390986694776,2.78066
1390986754776,2.78552
1390986814776,2.78067
1390986874776,2.77860
1390986934776,2.75591
1390986994776,2.78607
1390987054776,2.78297
1390987114776,2.77997
1390987174776,2.80573
1390987234776,2.79253
1390987294776,2.80105
1390987354776,2.77588
1390987414776,2.76654
1390987474776,2.78036
1390987534776,2.76351
1390987594776,2.75999
1390987654776,2.76467
1390987714776,2.76092
1390987774776,2.78806
1390987834776,2.75255
1390987894776,2.80016
1390987954776,2.73389
1390988014776,2.77245
1390988074776,2.78380
1390988134776,2.77120
1390988194776,2.75914
1390988254776,2.76611
1390988314776,2.76258
1390988374776,2.75006
1390988434776,2.78198
1390988494776,2.80777
1390988554776,2.79666
1390988614776,2.74437
1390988674776,2.77891
1390988734776,2.74726
1390988794776,2.75395
1390988854776,2.76346
1390988914776,2.77303
1390988974776,2.75396
1390989034776,2.76620
1390989094776,2.77997
1390989154776,2.77768
1390989214776,2.75278
1390989274776,2.78080
1390989334776,2.75481
1390989394776,2.77751
1390989454776,2.77426
1390989514776,2.78762
1390989574776,2.78455
1390989634787,2.78274
1390989694787,2.77453
1390989754787,2.77141
1390989814787,2.78047
1390989874787,2.74096
1390989934787,2.77234
1390989994787,2.74295
1390990054787,2.78138
1390990114787,2.76717
1390990174787,2.75027
1390990234787,2.74825
1390990294787,2.74706
1390990354787,2.71083
1390990414787,2.73914
1390990474787,2.74744
1390990534787,2.75498
1390990594787,2.75114
1390990654787,2.93742
1390990714787,2.76259
1390990774787,2.72184
1390990834787,2.75904
1390990894787,2.74431
1390990954787,2.75338
1390991014787,2.77565
1390991074787,2.73747
1390991134787,2.75561
1390991194787,2.76442
1390991254787,2.76513
1390991314787,2.72126
1390991374787,2.84062
1390991434787,2.73943
1390991494787,2.74308
1390991554787,2.77726
1390991614787,2.74888
1390991674787,2.78201
1390991734787,2.73297
1390991794787,2.73523
1390991854787,2.74622
1390991914787,2.75759
1390991974787,2.73562
1390992034787,2.74521
1390992094787,2.74366
1390992154787,2.74754
1390992214787,2.76587
1390992274787,2.71388
1390992334787,2.74715
1390992394787,2.74604
1390992454787,2.73858
1390992514787,2.73509
1390992574787,2.72115
1390992634787,2.72954
1390992694787,2.75441
1390992754787,2.73316
1390992814787,2.75508
1390992874787,2.72973
1390992934787,2.75457
1390992994787,2.73448
1390993054787,2.72070
1390993114787,2.72232
1390993174787,2.74735
1390993234799,2.74815
1390993294799,2.70707
1390993354799,2.76117
1390993414799,2.72841
1390993474799,2.73411
1390993534799,2.76624
1390993594799,2.74626
1390993654799,2.73336
1390993714799,2.74934
1390993774799,2.70859
1390993834799,2.73416
1390993894799,2.71955
1390993954799,2.71610
1390994014799,2.77833
1390994074799,2.77451
1390994134799,2.71605
1390994194799,2.72901
1390994254799,2.71387
1390994314799,2.71088
1390994374799,2.74145
1390994434799,2.72378
1390994494799,2.72775
1390994554799,2.71870
1390994614799,2.71149
1390994674799,2.72774
1390994734799,2.73463
1390994794799,2.75558
1390994854799,2.71195
1390994914799,2.73195
1390994974799,2.71178
1390995034799,2.74335
1390995094799,2.74149
1390995154799,2.74150
1390995214799,2.70408
1390995274799,2.77550
1390995334799,2.70812
1390995394799,2.74193
1390995454799,2.72271
1390995514799,2.73121
1390995574799,2.74105
1390995634799,2.73409
1390995694799,2.71833
1390995754799,2.75978
1390995814799,2.70613
1390995874799,2.71782
1390995934799,2.72186
1390995994799,2.72364
1390996054799,2.71619
1390996114799,2.72104
1390996174799,2.72704
1390996234799,2.69565
1390996294799,2.75211
1390996354799,2.74683
1390996414799,2.75467
1390996474799,2.72326
1390996534799,2.73116
1390996594799,2.73632
1390996654799,2.74156
1390996714799,2.74855
1390996774799,2.73209
1390996834810,2.75892
1390996894810,2.71468
1390996954810,2.75278
1390997014810,2.75088
1390997074810,2.74780
1390997134810,2.72738
1390997194810,2.73789
1390997254810,2.75465
1390997314810,2.74873
1390997374810,2.73928
1390997434811,2.73704
1390997494810,2.74966
1390997554810,2.78194
1390997614810,2.76105
1390997674810,2.73598
1390997734811,2.76809
1390997794811,2.73816
1390997854811,2.74035
1390997914811,2.74325
1390997974811,2.77622
1390998034811,2.75008
1390998094811,2.75254
1390998154810,2.75806
1390998214810,2.74208
1390998274810,2.72855
1390998334810,2.73490
1390998394810,2.76536
1390998454810,2.73983
1390998514810,2.72984
1390998574810,2.74213
1390998634810,2.73779
1390998694810,2.76420
1390998754811,2.76672
1390998814810,2.77619
1390998874810,2.77329
1390998934810,2.76362
1390998994810,2.74518
1390999054810,2.76901
1390999114811,2.78644
1390999174811,2.74866
1390999234811,2.76336
1390999294811,2.74184
1390999354811,2.76351
1390999414811,2.75810
1390999474810,2.74216
1390999534810,2.74435
1390999594810,2.73453
1390999654810,2.75727
1390999714810,2.72429
1390999774810,2.74714
1390999834810,2.74397
1390999894810,2.73591
1390999954810,2.78381
1391000014810,2.73231
1391000074810,2.74469
1391000134811,2.75763
1391000194810,2.75029
1391000254810,2.75147
1391000314810,2.73038
1391000374810,2.74434
1391000434841,2.72605
1391000494841,2.83739
1391000554841,2.76609
1391000614841,2.72465
1391000674841,2.74221
1391000734841,2.73242
1391000794841,2.72560
1391000854841,2.74447
1391000914841,2.74607
1391000974841,2.72707
1391001034841,2.74861
1391001094840,2.76655
1391001154840,2.75804
1391001214840,2.76479
1391001274841,2.76270
1391001334841,2.73842
1391001394841,2.75304
1391001454841,2.75184
1391001514841,2.74465
1391001574841,2.74976
1391001634841,2.72239
1391001694841,2.75665
1391001754841,2.75780
1391001814841,2.72484
1391001874841,2.73360
1391001934841,2.73732
1391001994841,2.74710
1391002054841,2.75455
1391002114841,2.76283
1391002174841,2.75723
1391002234841,2.72246
1391002294841,2.73498
1391002354841,2.74644
1391002414840,2.73913
1391002474840,2.73189
1391002534840,2.75031
1391002594841,2.74123
1391002654841,2.74702
1391002714841,2.72966
1391002774841,2.73964
1391002834841,2.73572
1391002894841,2.75341
1391002954841,2.73662
1391003014841,2.74156
1391003074841,2.73341
1391003134841,2.73980
1391003194841,2.72150
1391003254841,2.74580
1391003314841,2.75292
1391003374841,2.74811
1391003434841,2.73986
1391003494841,2.73824
1391003554841,2.73839
1391003614841,2.77583
1391003674841,2.74333
1391003734841,2.75138
1391003794840,2.73421
1391003854840,2.76448
1391003914840,2.73329
1391003974841,2.77634
1391004034854,2.75786
1391004094854,2.78241
1391004154854,2.76085
1391004214854,2.74811
1391004274854,2.76777
1391004334854,2.72240
1391004394854,2.74543
1391004454854,2.78363
1391004514854,2.75519
1391004574854,2.77264
1391004634854,2.74311
1391004694854,2.74429
1391004754854,2.76746
1391004814854,2.74604
1391004874854,2.72991
1391004934854,2.75847
1391004994854,2.72968
1391005054854,2.74181
1391005114854,2.72686
1391005174854,2.73012
1391005234854,2.72331
1391005294854,2.73113
1391005354854,2.72745
1391005414854,2.73943
1391005474854,2.76214
1391005534854,2.73887
1391005594854,2.76397
1391005654854,2.73760
1391005714854,2.73732
1391005774854,2.72656
1391005834854,2.74203
1391005894854,2.73408
1391005954854,2.71750
1391006014854,2.74454
1391006074854,2.73975
1391006134854,2.72951
1391006194854,2.73887
1391006254854,2.75203
1391006314854,2.74297
1391006374854,2.76432
1391006434854,2.77498
1391006494854,2.76506
1391006554854,2.77381
1391006614854,2.74398
1391006674854,2.75303
1391006734854,2.74866
1391006794854,2.75434
1391006854854,2.78291
1391006914854,2.74768
1391006974854,2.74641
1391007034854,2.75051
1391007094854,2.76879
1391007154854,2.75700
1391007214854,2.75628
1391007274854,2.77219
1391007334854,2.75985
1391007394854,2.75074
1391007454854,2.78644
1391007514854,2.77443
1391007574854,2.72561
1391008114867,2.78215
1391008174867,2.80117
1391008234867,2.80725
1391008294867,2.80693
1391008354867,2.83546
1391008414867,2.82412
1391008474867,2.84434
1391008534867,2.81265
1391008834867,2.79036
1391008894867,2.79810
1391008954867,2.80634
1391009014867,2.76505
1391009074867,2.78265
1391009134867,2.75244
1391009194867,2.78076
1391009254867,2.75365
1391009314867,2.75850
1391009374867,2.79352
1391009434867,2.79553
1391009494867,2.77462
1391009554867,2.75937
1391009614867,2.76010
1391009674867,2.78078
1391009734867,2.78804
1391009794867,2.75822
1391009854867,2.76275
1391009914867,2.76432
1391009974867,2.78822
1391010034867,2.78114
1391010094867,2.77036
1391010154867,2.80677
1391010214867,2.77970
1391010274867,2.76898
1391010334867,2.78479
1391010394867,2.78641
1391010454867,2.77786
1391010514867,2.79398
1391010574867,2.78347
1391010634867,2.76357
1391010694867,2.74870
1391010754867,2.75578
1391010814867,2.73063
1391010874867,2.75556
1391010934867,2.77606
1391010994867,2.74142
1391011054867,2.73396
1391011114867,2.75618
1391011174867,2.77064
1391011234879,2.72142
1391011294879,2.74984
1391011354879,2.75759
1391011414879,2.76148
1391011474879,2.75618
1391011534879,2.79294
1391011594879,2.74255
1391011834879,2.74734
1391011894879,2.76251
1391011954879,2.79424
1391012194879,2.79841
1391012254879,2.75342
1391012314879,2.75337
1391012374879,2.74340
1391012434879,2.77115
1391012494879,2.75137
1391012554879,2.77795
1391012614879,2.75655
1391012674879,2.75037
1391012734879,2.76508
1391012794879,2.75856
1391012854879,2.76581
1391012914879,2.72971
1391012974879,2.74397
1391013034879,2.72982
1391013094879,2.77111
1391013154879,2.76311
1391013214879,2.73861
1391013274879,2.76260
1391013334879,2.75721
1391013394879,2.77038
1391013454879,2.77510
1391013514879,2.73537
1391013574879,2.74838
1391013634879,2.77889
1391013694879,2.77170
1391013754879,2.74943
1391013814879,2.77052
1391013874879,2.74391
1391013934879,2.75959
1391013994879,2.76294
1391014054879,2.76120
1391014114879,2.77152
1391014174879,2.75088
1391014234879,2.78894
1391014294879,2.76046
1391014354879,2.75997
1391014414879,2.73179
1391014474879,2.78697
1391014534879,2.77494
1391014594879,2.75146
1391014654879,2.76511
1391014714879,2.77088
1391014774879,2.75031
1391014834892,2.76968
1391014894892,2.75192
1391014954892,2.78756
1391015014892,2.79588
1391015074892,2.75544
1391015134892,2.78034
1391015194892,2.79016
1391015254892,2.78622
1391015314892,2.77409
1391015374892,2.78514
1391015434892,2.76724
1391015494892,2.76099
1391015554892,2.77434
1391015614892,2.76819
1391015674892,2.76825
1391015734892,2.77317
1391015794892,2.80922
1391015854892,2.77596
1391015914892,2.78608
1391015974892,2.75225
1391016034892,2.74359
1391016094892,2.75637
1391016154892,2.75578
1391016214892,2.75085
1391016274892,2.73989
1391016334892,2.78801
1391016394892,2.77063
1391016454892,2.75502
1391016514892,2.76695
1391016574892,2.77313
1391016634892,2.73170
1391016694892,2.71361
1391016754892,2.74439
1391016814892,2.73006
1391016874892,2.76486
1391016934892,2.75177
1391016994892,2.74760
1391017054892,2.73935
1391017114892,2.72031
1391017174892,2.74488
1391017234892,2.73924
1391017294892,2.74811
1391017354892,2.74519
1391017414892,2.73265
1391017474892,2.75500
1391017534892,2.73662
1391017594892,2.73144
1391017654892,2.76700
1391017714892,2.73457
1391017774892,2.75997
1391017834892,2.76825
1391017894892,2.77632
1391017954892,2.80193
1391018014892,2.70982
1391018074892,2.76008
1391018134892,2.72762
1391018194892,2.72405
1391018254892,2.77445
1391018314892,2.74664
1391018374892,2.73391
1391018434905,2.75447
1391018494905,2.75348
1391018554905,2.75598
1391018614905,2.71640
1391018674905,2.72197
1391018734905,2.74903
1391018794905,2.72104
1391018854905,2.76004
1391018914905,2.73558
1391018974905,2.75048
1391019034905,2.72342
1391019094905,2.74513
1391019154905,2.73490
1391019214905,2.74350
1391019274905,2.74325
1391019334905,2.72147
1391019394905,2.74913
1391019454905,2.74136
1391019514905,2.73405
1391019574905,2.75812
1391019634905,2.76526
1391019694905,2.71877
1391019754905,2.75053
1391019814905,2.72024
1391019874905,2.75304
1391019934905,2.75391
1391019994905,2.73500
1391020054905,2.76196
1391020114905,2.73710
1391020174905,2.75954
1391020234905,2.74985
1391020294905,2.76112
1391020354905,2.73988
1391020414905,2.73041
1391020474905,2.74230
1391020534905,2.73514